When you browse on this site, cookies collect data to enhance your experience and personalize the content and advertising you see.
Visit our Privacy Policy to learn more. By continuing to use the site, you agree to this use of cookies and data.
  • In Romania
  • List of Countries
  • For 7 days
  • Water Temperature
  • Weather Map
  • Weather Widgets
  • user-avatar
    Login

    Hourly Weather Rokochevo

    Today, 19 September, Thursday

    Time Temperature Precipitation Wind Pressure Humidity
    00:00 +5°C° 0 mm 2 mps 736 mmHg 98%
    01:00 +5°C° 0 mm 2 mps 737 mmHg 98%
    02:00 +5°C° 0 mm 2 mps 737 mmHg 98%
    03:00 +4°C° 0 mm 2 mps 738 mmHg 98%
    04:00 +4°C° 0 mm 2 mps 738 mmHg 97%
    05:00 +4°C° 0 mm 2 mps 738 mmHg 96%
    06:00 +4°C° 0 mm 2 mps 739 mmHg 95%
    07:00 +4°C° 0 mm 2 mps 739 mmHg 93%
    08:00 +5°C° 0 mm 2 mps 740 mmHg 93%
    09:00 +6°C° 0 mm 2 mps 740 mmHg 89%
    10:00 +6°C° 0 mm 2 mps 740 mmHg 84%
    11:00 +8°C° 0 mm 1 mps 741 mmHg 79%
    12:00 +8°C° 0.2 mm 2 mps 741 mmHg 77%
    13:00 +8°C° 0.2 mm 2 mps 741 mmHg 75%
    14:00 +9°C° 0.2 mm 2 mps 741 mmHg 73%
    15:00 +8°C° 0.2 mm 2 mps 741 mmHg 77%
    16:00 +7°C° 0.2 mm 2 mps 742 mmHg 81%
    17:00 +7°C° 0.2 mm 2 mps 742 mmHg 85%
    18:00 +7°C° 0 mm 1 mps 742 mmHg 88%
    19:00 +6°C° 0 mm 1 mps 742 mmHg 91%
    20:00 +4°C° 0 mm 1 mps 742 mmHg 93%
    21:00 +4°C° 0 mm 1 mps 742 mmHg 94%
    22:00 +4°C° 0 mm 1 mps 742 mmHg 95%
    23:00 +3°C° 0 mm 1 mps 742 mmHg 95%

    Tomorrow, 20 September, Friday

    Time Temperature Precipitation Wind Pressure Humidity
    00:00 +3°C° 0 mm 1 mps 742 mmHg 96%
    01:00 +2°C° 0 mm 1 mps 742 mmHg 96%
    02:00 +2°C° 0 mm 1 mps 742 mmHg 96%
    03:00 +2°C° 0 mm 1 mps 742 mmHg 96%
    04:00 +1°C° 0 mm 1 mps 742 mmHg 96%
    05:00 +1°C° 0 mm 1 mps 742 mmHg 96%
    06:00 +2°C° 0 mm 1 mps 742 mmHg 94%
    07:00 +3°C° 0 mm 1 mps 742 mmHg 91%
    08:00 +4°C° 0 mm 1 mps 742 mmHg 89%
    09:00 +4°C° 0.1 mm 2 mps 742 mmHg 87%
    10:00 +5°C° 0.1 mm 2 mps 743 mmHg 85%
    11:00 +5°C° 0.1 mm 3 mps 743 mmHg 83%
    12:00 +7°C° 0.2 mm 3 mps 743 mmHg 79%
    13:00 +7°C° 0.2 mm 3 mps 743 mmHg 75%
    14:00 +7°C° 0.2 mm 3 mps 743 mmHg 71%
    15:00 +7°C° 0 mm 3 mps 743 mmHg 72%
    16:00 +6°C° 0 mm 2 mps 743 mmHg 73%
    17:00 +6°C° 0 mm 2 mps 743 mmHg 74%
    18:00 +6°C° 0 mm 1 mps 743 mmHg 79%
    19:00 +4°C° 0 mm 1 mps 743 mmHg 84%
    20:00 +3°C° 0 mm 1 mps 744 mmHg 89%
    21:00 +3°C° 0 mm 1 mps 744 mmHg 90%
    22:00 +2°C° 0 mm 1 mps 744 mmHg 92%
    23:00 +2°C° 0 mm 1 mps 743 mmHg 93%

    Day after tomorrow, 21 September, Saturday

    Time Temperature Precipitation Wind Pressure Humidity
    00:00 +1°C° 0 mm 1 mps 743 mmHg 92%
    01:00 +1°C° 0 mm 1 mps 743 mmHg 91%
    02:00 -1°C° 0 mm 2 mps 743 mmHg 90%
    03:00 +1°C° 0 mm 2 mps 743 mmHg 89%
    04:00 +1°C° 0 mm 2 mps 743 mmHg 88%
    05:00 +2°C° 0 mm 2 mps 743 mmHg 86%
    06:00 +2°C° 0.3 mm 2 mps 742 mmHg 88%
    07:00 +3°C° 0.3 mm 2 mps 742 mmHg 90%
    08:00 +2°C° 0.3 mm 3 mps 742 mmHg 92%
    09:00 +3°C° 0.1 mm 3 mps 741 mmHg 90%
    10:00 +5°C° 0.1 mm 2 mps 741 mmHg 89%
    11:00 +5°C° 0.1 mm 2 mps 741 mmHg 87%
    12:00 +5°C° 0.1 mm 2 mps 740 mmHg 90%
    13:00 +5°C° 0.1 mm 2 mps 740 mmHg 92%
    14:00 +5°C° 0.1 mm 2 mps 739 mmHg 94%
    15:00 +5°C° 0.3 mm 2 mps 739 mmHg 95%
    16:00 +5°C° 0.3 mm 2 mps 739 mmHg 96%
    17:00 +5°C° 0.3 mm 2 mps 738 mmHg 97%
    18:00 +6°C° 0 mm 1 mps 738 mmHg 98%
    19:00 +6°C° 0 mm 1 mps 738 mmHg 98%
    20:00 +6°C° 0 mm 1 mps 738 mmHg 99%
    21:00 +6°C° 0 mm 1 mps 737 mmHg 99%
    22:00 +6°C° 0 mm 1 mps 737 mmHg 99%
    23:00 +6°C° 0 mm 1 mps 736 mmHg 99%

    22 September, Sunday

    Time Temperature Precipitation Wind Pressure Humidity
    00:00 +6°C° 0.1 mm 1 mps 736 mmHg 99%
    01:00 +6°C° 0.1 mm 1 mps 736 mmHg 99%
    02:00 +6°C° 0.1 mm 1 mps 735 mmHg 99%
    03:00 +5°C° 0.2 mm 2 mps 736 mmHg 97%
    04:00 +5°C° 0.2 mm 3 mps 736 mmHg 96%
    05:00 +5°C° 0.2 mm 4 mps 736 mmHg 95%
    06:00 +4°C° 0.3 mm 4 mps 736 mmHg 92%
    07:00 +3°C° 0.3 mm 5 mps 737 mmHg 90%
    08:00 +2°C° 0.3 mm 5 mps 737 mmHg 87%
    09:00 +3°C° 0.1 mm 5 mps 738 mmHg 82%
    10:00 +5°C° 0.1 mm 5 mps 739 mmHg 76%
    11:00 +6°C° 0.1 mm 5 mps 740 mmHg 71%
    12:00 +5°C° 0.2 mm 6 mps 741 mmHg 68%
    13:00 +5°C° 0.2 mm 6 mps 741 mmHg 65%
    14:00 +5°C° 0.2 mm 6 mps 742 mmHg 63%
    15:00 +6°C° 0.1 mm 5 mps 742 mmHg 64%
    16:00 +5°C° 0.1 mm 4 mps 743 mmHg 66%
    17:00 +5°C° 0.1 mm 3 mps 743 mmHg 68%
    18:00 +3°C° 0 mm 3 mps 744 mmHg 73%
    19:00 +3°C° 0 mm 2 mps 744 mmHg 77%
    20:00 +2°C° 0 mm 2 mps 745 mmHg 81%
    21:00 +1°C° 0 mm 2 mps 745 mmHg 84%
    22:00 +1°C° 0 mm 2 mps 745 mmHg 87%
    23:00 -1°C° 0 mm 2 mps 745 mmHg 90%

    23 September, Monday

    Time Temperature Precipitation Wind Pressure Humidity
    00:00 -1°C° 0 mm 2 mps 746 mmHg 91%
    01:00 -1°C° 0 mm 2 mps 746 mmHg 93%
    02:00 -1°C° 0 mm 2 mps 746 mmHg 94%
    03:00 -1°C° 0 mm 2 mps 746 mmHg 94%
    04:00 -1°C° 0 mm 2 mps 746 mmHg 93%
    05:00 -1°C° 0 mm 2 mps 746 mmHg 93%
    06:00 +1°C° 0 mm 2 mps 746 mmHg 88%
    07:00 +2°C° 0 mm 2 mps 746 mmHg 82%
    08:00 +3°C° 0 mm 2 mps 746 mmHg 77%
    09:00 +4°C° 0 mm 2 mps 746 mmHg 71%
    10:00 +6°C° 0 mm 2 mps 746 mmHg 64%
    11:00 +7°C° 0 mm 2 mps 746 mmHg 58%
    12:00 +7°C° 0 mm 3 mps 746 mmHg 58%
    13:00 +7°C° 0 mm 3 mps 746 mmHg 58%
    14:00 +8°C° 0 mm 3 mps 745 mmHg 59%
    15:00 +7°C° 0 mm 2 mps 745 mmHg 64%
    16:00 +6°C° 0 mm 2 mps 745 mmHg 69%
    17:00 +7°C° 0 mm 1 mps 745 mmHg 74%
    18:00 +6°C° 0 mm 1 mps 745 mmHg 77%
    19:00 +5°C° 0 mm 1 mps 745 mmHg 80%
    20:00 +4°C° 0 mm 1 mps 745 mmHg 84%
    21:00 +4°C° 0 mm 1 mps 745 mmHg 85%
    22:00 +3°C° 0 mm 1 mps 745 mmHg 86%
    23:00 +3°C° 0 mm 1 mps 745 mmHg 88%

    24 September, Tuesday

    Time Temperature Precipitation Wind Pressure Humidity
    00:00 +2°C° 0 mm 0 mps 744 mmHg 88%
    01:00 +2°C° 0 mm 0 mps 744 mmHg 88%
    02:00 +1°C° 0 mm 0 mps 744 mmHg 88%
    03:00 +1°C° 0 mm 0 mps 744 mmHg 89%
    04:00 0°C° 0 mm 0 mps 744 mmHg 90%
    05:00 +1°C° 0 mm 1 mps 744 mmHg 92%
    06:00 +2°C° 0 mm 1 mps 744 mmHg 85%
    07:00 +3°C° 0 mm 1 mps 744 mmHg 78%
    08:00 +4°C° 0 mm 1 mps 744 mmHg 71%
    09:00 +6°C° 0 mm 1 mps 744 mmHg 64%
    10:00 +7°C° 0 mm 1 mps 744 mmHg 57%
    11:00 +7°C° 0 mm 2 mps 744 mmHg 50%
    12:00 +8°C° 0 mm 2 mps 744 mmHg 49%
    13:00 +8°C° 0 mm 2 mps 744 mmHg 48%
    14:00 +8°C° 0 mm 2 mps 744 mmHg 46%
    15:00 +8°C° 0 mm 1 mps 744 mmHg 53%
    16:00 +7°C° 0 mm 1 mps 744 mmHg 59%
    17:00 +6°C° 0 mm 1 mps 744 mmHg 66%
    18:00 +5°C° 0 mm 1 mps 744 mmHg 72%
    19:00 +4°C° 0 mm 1 mps 744 mmHg 78%
    20:00 +1°C° 0 mm 2 mps 744 mmHg 84%
    21:00 +2°C° 0 mm 1 mps 744 mmHg 86%
    22:00 +2°C° 0 mm 1 mps 744 mmHg 88%
    23:00 +1°C° 0 mm 1 mps 744 mmHg 90%
    Show more